STARLINK-3228

decayed
NORAD ID: 49731 Int'l Des: 2021-115 Owner: SPXS Country: US Constellation: starlink
LEOCIRCULAR
グループ

STARLINK-3228について

説明を読み込み中...

高度履歴

Altitude vs Time

uPlot chart will show altitude changes over time

軌道要素

1 49731U 21115H 24118.49336757 .86417520 12567-4 55233-3 0 9993
2 49731 53.1921 287.6669 0012331 154.6816 302.8688 16.53046372134350
Epoch: Apr 27, 2024 • Age: 12153 hours

現在のステータス

Position data unavailable
打ち上げ日 Dec 2, 2021
運用期間 3.7 years
落下予定日 Apr 27, 2024
タイプ internet

技術仕様

分類 Payload
質量 290.00 kg
乾燥質量 270.00 kg
総質量 290.00 kg
長さ 0.20 m
直径 2.80 m
スパン 9.00 m
形状 Box + pan
製造者 SPXS
バスタイプ Starlink
フェーズステータス Unknown Transfer Status
所有者/国 SPXS/US

大規模コンステレーション

Loading constellations...